[[{"header":{"parameterUnit":"m.s-1","parameterCategory":1,"la1":30.2991,"la2":30.254,"lo1":-89.0895,"lo2":-89.0444,"dy":0.0017,"dx":0.0017,"nx":28,"ny":28,"refTime":"2023-07-19T03:00:00:Z","depth":0,"parameterNumber":2,"parameterNumberName":"U-component_of_WINDS"},"data":[0,0,0,0,0,0,0,0,0,0,0,0,0,0,0,0,0,0,0,0,0,0,0,0,0,0,0,0,0,0,0,0,0,0,0,0,0,0,0,0,0,0,0,0,0,0,0,0,0,0,0,0,0,0,0,0,0,0,3.5709,3.571,0,3.5825,3.5827,3.5828,3.5772,3.5769,3.5766,3.5763,3.5883,3.5888,3.5894,0,0,0,0,0,0,0,0,0,0,0,0,0,3.5437,3.5442,3.5709,3.571,3.5712,3.5825,3.5827,3.5828,3.5772,3.5769,3.5765,3.5762,3.5881,3.5888,3.5895,0,0,0,0,0,0,0,0,0,0,0,0,0,3.5554,3.5444,3.5709,3.5698,3.5698,3.5825,3.5827,3.5829,3.5773,3.5769,3.5764,3.576,3.5878,3.5887,3.5896,3.6041,0,0,3.5923,3.5927,0,0,0,0,0,0,0,0,3.5548,3.5564,3.5698,3.5699,3.5699,3.578,3.5775,3.59,3.5774,3.5745,3.5763,3.5758,3.5852,3.5863,3.5894,3.6046,3.6051,3.5924,3.5929,3.5933,3.5936,0,0,0,0,0,0,0,3.554,3.5559,3.5755,3.57,3.5701,3.5686,3.5698,3.5798,3.5822,3.5747,3.5743,3.5758,3.5851,3.5886,3.5897,3.6053,3.5924,3.5932,3.5937,3.5941,3.6327,3.6332,0,0,0,0,0,0,3.5532,3.5553,3.5751,3.5759,3.5611,3.5695,3.5708,3.5758,3.5821,3.5826,3.5761,3.5754,3.5873,3.5886,3.5901,3.6072,3.5933,3.5941,3.5947,3.6322,3.6328,3.6333,0,0,0,0,0,0,3.5527,3.555,3.5747,3.5655,3.5679,3.5704,3.5761,3.5763,3.5797,3.5832,3.5836,3.5792,3.587,3.5888,3.6006,3.6076,3.5946,3.5954,3.6316,3.6324,3.6331,3.6418,0,0,0,0,0,0,3.5519,3.5549,3.5604,3.5656,3.5684,3.585,3.5766,3.5768,3.5813,3.5805,3.5862,3.5867,3.5868,3.5993,3.6015,3.6086,3.5961,3.631,3.632,3.6328,3.6409,3.6427,3.6443,0,0,0,0,0,3.5509,3.5625,3.5608,3.5632,3.5754,3.5854,3.587,3.5869,3.5819,3.5874,3.5896,3.5865,3.6065,3.6005,3.6029,3.6104,3.6306,3.6317,3.6328,3.6401,3.6424,3.6443,0,0,0,0,0,0,3.5581,3.5632,3.5613,3.5749,3.5798,3.5845,3.5915,3.5893,3.5957,3.5947,3.5943,3.5956,3.6077,3.6103,3.6035,3.6246,3.6178,3.6194,3.6225,3.6247,3.6264,3.6254,3.5968,0,0,0,0,0,3.5613,3.569,3.573,3.5846,3.5872,3.5889,3.5933,3.5928,3.5978,3.5999,3.6029,3.6079,3.6153,3.6202,3.6272,3.6413,3.6423,3.6476,3.6493,3.6507,3.6521,3.6595,3.6618,3.637,3.6369,3.6369,0,0,3.5679,3.5716,3.5765,3.5862,3.5899,3.5978,3.5907,3.5995,3.6054,3.6012,3.6124,3.6148,3.6204,3.6333,3.6391,3.6358,3.6592,3.6521,3.6532,3.6538,3.6608,3.6632,3.6653,3.6377,3.6376,3.6374,0,0,3.5839,3.5876,3.5976,3.6014,3.6071,3.6082,3.6106,3.6156,3.617,3.6283,3.6252,3.6322,3.645,3.649,3.6527,3.6701,3.6674,3.6725,3.6813,3.6885,3.6905,3.6922,3.6982,3.7004,3.6738,3.6739,3.6739,0,3.5914,3.6033,3.603,3.6119,3.6161,3.6127,3.6227,3.6265,3.6342,3.6372,3.6333,3.6491,3.6526,3.6663,3.6705,3.6738,3.6763,3.6717,3.6903,3.692,3.6936,3.6993,3.7015,3.6744,3.6744,3.6743,3.6742,0,3.6121,3.6204,3.6277,3.6351,3.6402,3.6497,3.6507,3.6559,3.6549,3.6564,3.6677,3.6718,3.6795,3.6827,3.6819,3.6963,3.694,3.6902,3.6832,3.6965,3.7018,3.704,3.6752,3.675,3.6749,3.6747,0,0,3.6329,3.64,3.6426,3.6459,3.6519,3.6582,3.6675,3.6749,3.6792,3.6847,3.6923,3.7031,3.6996,3.7038,3.7034,3.7098,3.723,3.7052,3.7054,3.7082,3.7388,3.7414,3.7439,3.7213,3.7217,3.7221,3.7382,0,3.6492,3.6653,3.6652,3.6801,3.6876,3.6844,3.6924,3.6969,3.6985,3.7051,3.7068,3.7144,3.7094,3.7118,3.718,3.7201,3.7291,3.719,3.7282,3.7285,3.7267,3.7467,3.7495,3.7646,3.7403,3.7407,3.7409,0,3.6703,3.6763,3.6919,3.6966,3.6997,3.7069,3.7136,3.72,3.725,3.7257,3.7303,3.7289,3.7381,3.7311,3.7437,3.7368,3.7406,3.7422,3.7427,3.7434,3.7354,3.7477,3.7694,3.7715,3.7443,3.744,3.7438,0,3.6836,3.6956,3.7064,3.7093,3.7151,3.7202,3.7229,3.7274,3.7318,3.7377,3.7405,3.7474,3.7512,3.7565,3.7569,3.7518,3.7696,3.7626,3.7703,3.7703,3.774,3.7737,3.7963,3.7769,3.7769,3.7768,3.7768,0,3.7016,3.7112,3.7124,3.719,3.7296,3.7294,3.7399,3.7421,3.7462,3.7531,3.7509,3.7574,3.7577,3.7643,3.7648,3.775,3.7768,3.7775,3.7774,3.7776,3.7774,3.7798,3.7787,3.7774,3.7773,3.7772,3.7771,0,3.7182,3.7194,3.7309,3.7354,3.7368,3.7444,3.7482,3.7545,3.7558,3.7646,3.7667,3.7688,3.7765,3.7775,3.7866,3.7868,3.7991,3.7981,3.7974,3.7971,3.8046,3.8038,3.8294,3.8326,3.8113,3.8115,3.8117,0,3.7295,3.7367,3.742,3.7465,3.7494,3.7566,3.761,3.7611,3.7658,3.772,3.7775,3.7849,3.7909,3.8034,3.8057,3.8125,3.8115,3.82,3.8125,3.8123,3.8113,3.8107,3.8113,3.8214,3.8216,3.8218,3.8219,0,3.7493,3.7495,3.756,3.7627,3.768,3.7733,3.7783,3.7821,3.7827,3.7881,3.796,3.8006,3.8097,3.8171,3.8239,3.8265,3.8243,3.8243,3.8264,3.8264,3.8256,3.8259,3.801,3.8237,3.8235,3.8234,3.8233,3.8232,3.7634,3.7696,3.7742,3.7814,3.7852,3.7898,3.7958,3.7979,3.8045,3.8119,3.8115,3.8201,3.8247,3.8335,3.8367,3.8433,3.8405,3.8436,3.8443,3.845,3.8456,3.8248,3.8446,3.8445,3.8445,3.8444,3.8444,0,3.7828,3.7856,3.7923,3.7992,3.8049,3.8024,3.8077,3.8126,3.8201,3.8246,3.8305,3.8394,3.8465,3.8494,3.8563,3.861,3.8602,3.8628,3.8623,3.8629,3.8479,3.8452,3.8634,3.8634,3.8634,3.8634,3.8633,3.8633,3.7936,3.8039,3.8046,3.8167,3.8194,3.8277,3.8309,3.8351,3.8387,3.8487,3.8546,3.8564,3.8602,3.8673,3.8737,3.8743,3.8769,3.8799,3.8801,3.8659,3.864,3.8622,3.8597,3.8805,3.8806,3.8945,3.8947,3.8948]},{"header":{"parameterUnit":"m.s-1","parameterCategory":1,"la1":30.2991,"la2":30.254,"lo1":-89.0895,"lo2":-89.0444,"dy":0.0017,"dx":0.0017,"nx":28,"ny":28,"refTime":"2023-07-19T03:00:00:Z","depth":0,"parameterNumber":3,"parameterNumberName":"V-component_of_WINDS"},"data":[0,0,0,0,0,0,0,0,0,0,0,0,0,0,0,0,0,0,0,0,0,0,0,0,0,0,0,0,0,0,0,0,0,0,0,0,0,0,0,0,0,0,0,0,0,0,0,0,0,0,0,0,0,0,0,0,0,0,0.9281,0.9281,0,0.9339,0.9339,0.934,0.9324,0.9323,0.9322,0.9321,0.9382,0.9384,0.9387,0,0,0,0,0,0,0,0,0,0,0,0,0,0.9157,0.9159,0.9281,0.9281,0.9282,0.9338,0.9339,0.934,0.9324,0.9323,0.9322,0.932,0.9381,0.9384,0.9387,0,0,0,0,0,0,0,0,0,0,0,0,0,0.9212,0.916,0.928,0.9281,0.9282,0.9338,0.9339,0.934,0.9325,0.9323,0.9321,0.932,0.938,0.9384,0.9388,0.9448,0,0,0.94,0.9402,0,0,0,0,0,0,0,0,0.9209,0.9217,0.928,0.9281,0.9282,0.9322,0.9318,0.9376,0.9325,0.9308,0.9321,0.9319,0.9363,0.9369,0.9383,0.9451,0.9453,0.94,0.9403,0.9405,0.9406,0,0,0,0,0,0,0,0.9205,0.9214,0.9304,0.9281,0.9282,0.9278,0.9284,0.9329,0.9345,0.931,0.9309,0.9316,0.9364,0.938,0.9385,0.9454,0.94,0.9404,0.9406,0.9408,0.9573,0.9575,0,0,0,0,0,0,0.9201,0.9211,0.9302,0.9305,0.924,0.9282,0.9289,0.9311,0.9345,0.9348,0.9317,0.9315,0.9374,0.938,0.9387,0.9459,0.9405,0.9408,0.9411,0.9571,0.9573,0.9575,0,0,0,0,0,0,0.9198,0.9209,0.9299,0.9258,0.9269,0.9286,0.9311,0.9313,0.9329,0.935,0.9353,0.9331,0.9372,0.9381,0.9433,0.9461,0.941,0.9414,0.9569,0.9572,0.9574,0.9605,0,0,0,0,0,0,0.9195,0.9208,0.9231,0.9259,0.9271,0.9344,0.9313,0.9316,0.9336,0.9334,0.9364,0.9367,0.9372,0.9427,0.9437,0.9466,0.9417,0.9566,0.957,0.9573,0.9601,0.9608,0.9614,0,0,0,0,0,0.919,0.9238,0.9232,0.9243,0.9301,0.9346,0.9353,0.9357,0.9338,0.9362,0.9375,0.9366,0.9456,0.9432,0.9443,0.9474,0.9564,0.9569,0.9573,0.9598,0.9607,0.9614,0,0,0,0,0,0,0.9214,0.9241,0.9236,0.9294,0.9317,0.9343,0.9373,0.9366,0.9396,0.9393,0.9397,0.9404,0.9457,0.947,0.9443,0.9534,0.9508,0.9514,0.9523,0.9531,0.9538,0.9534,0.942,0,0,0,0,0,0.9226,0.926,0.9282,0.9331,0.9343,0.9356,0.9376,0.9377,0.9402,0.9412,0.9429,0.9454,0.9488,0.951,0.9543,0.9603,0.9609,0.9629,0.9636,0.9641,0.9647,0.968,0.9689,0.959,0.959,0.959,0,0,0.9251,0.927,0.9292,0.9336,0.9355,0.939,0.9364,0.9403,0.9429,0.9418,0.9467,0.9481,0.9509,0.9564,0.959,0.9578,0.9676,0.9647,0.9651,0.9654,0.9685,0.9695,0.9703,0.9593,0.9592,0.9592,0,0,0.9315,0.9333,0.9375,0.9394,0.9422,0.943,0.944,0.9467,0.9475,0.9524,0.9516,0.9547,0.9606,0.9626,0.9644,0.9714,0.9707,0.9724,0.9759,0.979,0.9798,0.9805,0.983,0.9839,0.973,0.973,0.973,0,0.9343,0.9396,0.9398,0.9437,0.9457,0.9447,0.949,0.9508,0.9546,0.956,0.9545,0.9618,0.9636,0.9696,0.9713,0.9728,0.974,0.9721,0.9797,0.9804,0.981,0.9834,0.9844,0.9732,0.9732,0.9732,0.9732,0,0.9428,0.9465,0.9496,0.9532,0.9555,0.9596,0.9604,0.9627,0.9626,0.9635,0.9686,0.9707,0.9743,0.9757,0.9757,0.9817,0.9809,0.9795,0.977,0.9822,0.9844,0.9853,0.9735,0.9734,0.9734,0.9733,0,0,0.951,0.9546,0.9557,0.9573,0.9602,0.9631,0.9671,0.9706,0.9725,0.9751,0.9785,0.9834,0.9822,0.9842,0.9843,0.9871,0.9925,0.9854,0.9855,0.9867,0.9993,1.0003,1.0013,0.992,0.9921,0.9923,0.999,0,0.9577,0.9647,0.965,0.9714,0.9748,0.9739,0.9773,0.9795,0.9805,0.9835,0.9846,0.988,0.9861,0.9873,0.99,0.9913,0.995,0.9908,0.9952,0.9953,0.9945,1.0025,1.0036,1.0099,0.9999,1.0001,1.0002,0,0.9664,0.9692,0.976,0.9783,0.9798,0.9829,0.9861,0.9889,0.9914,0.9919,0.9941,0.9938,0.9979,0.9951,1.0008,0.9978,0.9996,1.0005,1.0008,1.0013,0.9981,1.0032,1.0119,1.0129,1.0016,1.0015,1.0014,0,0.9717,0.9772,0.9819,0.9832,0.9862,0.9884,0.9897,0.992,0.994,0.9968,0.9981,1.0013,1.0031,1.0056,1.0062,1.0041,1.0119,1.0091,1.0124,1.0124,1.0141,1.014,1.0233,1.0152,1.0152,1.0152,1.0152,0,0.9792,0.9834,0.9843,0.9872,0.9918,0.9921,0.9966,0.9978,0.9998,1.0029,1.0023,1.0052,1.0058,1.0089,1.0094,1.014,1.0148,1.0153,1.0154,1.0154,1.0153,1.0166,1.0162,1.0154,1.0154,1.0153,1.0153,0,0.9859,0.9867,0.9918,0.9941,0.9948,0.9981,1.0,1.0028,1.0036,1.0076,1.0085,1.0098,1.0134,1.0142,1.0185,1.0188,1.0242,1.0239,1.0234,1.0234,1.0266,1.0263,1.0371,1.0385,1.0295,1.0296,1.0296,0,0.9907,0.9938,0.9964,0.9984,0.9999,1.0031,1.0052,1.0055,1.0077,1.0106,1.013,1.0165,1.0193,1.0251,1.0264,1.0296,1.0294,1.0329,1.0299,1.0297,1.0295,1.0293,1.0296,1.0335,1.0336,1.0337,1.0338,0,0.999,0.9992,1.0021,1.0052,1.0077,1.0101,1.0125,1.0141,1.0148,1.0172,1.0208,1.023,1.0273,1.0307,1.0339,1.0353,1.0347,1.0347,1.0356,1.0357,1.0353,1.0355,1.025,1.0345,1.0344,1.0343,1.0343,1.0343,1.0049,1.0076,1.0099,1.0132,1.0149,1.0171,1.0198,1.0209,1.0239,1.0274,1.0274,1.0313,1.0336,1.0378,1.0394,1.0424,1.0414,1.0427,1.0431,1.0434,1.0437,1.0347,1.043,1.043,1.043,1.043,1.043,0,1.0132,1.0145,1.0175,1.0208,1.0234,1.0224,1.0249,1.0271,1.0306,1.0327,1.0355,1.0396,1.0429,1.0444,1.0477,1.0499,1.0497,1.0507,1.0506,1.0509,1.0445,1.0434,1.0508,1.0508,1.0508,1.0508,1.0508,1.0508,1.0178,1.0224,1.0228,1.0282,1.0296,1.0334,1.0349,1.0369,1.0386,1.0432,1.0459,1.0468,1.0487,1.0521,1.0551,1.0555,1.0567,1.058,1.0582,1.0522,1.0514,1.0506,1.0496,1.0582,1.0582,1.0644,1.0644,1.0645]}]]